Weather observations for the past three days for
Iliamna, Iliamna Airport
Imperial (Metric)
Date Time (akdt) Wind (mph) Vis. (mi.) Weather Sky Cond. Temperature (ºF) Relative Humidity Wind Chill (°F) Heat Index (°F) Pressure Precipitation (in)
Air Dwpt 6 hour altimeter (in) sea level (mb) 1 hr 3 hr 6 hr
Max. Min.
21 14:53 SE 9 10.00 Fair CLR 69.1 51.1 53% 30.13 1020.3
21 13:53 S 6 10.00 Fair CLR 71.1 53.1 53% 30.14 1020.6
21 12:53 SE 7 10.00 Fair CLR 68 51.1 55% 30.15 1021.1
21 11:53 S 7 10.00 Fair CLR 66 54 65% 30.16 1021.3
21 10:53 SE 6 10.00 Fair CLR 63 54 73% 30.17 1021.7
21 09:53 E 3 10.00 Fair CLR 63 54 63 48 73% 30.18 1021.9
21 08:53 Calm 10.00 Fair CLR 60.1 52 75% 30.18 1022.1
21 07:53 Calm 10.00 Fair CLR 55.9 51.1 84% 30.18 1022.1
21 06:53 N 3 10.00 Fair CLR 52 48.9 89% 30.18 1022.1
21 05:53 W 5 10.00 Fair CLR 48 46.9 96% 47 30.18 1022.2
21 04:53 Calm 0.00 Fair CLR 51.1 48.9 92% 30.18 1022.2
20 08:53 Calm 10.00 Fair CLR 55.9 50 81% 30.2 1022.6
20 07:53 NE 5 10.00 Fair CLR 54 48 80% 30.2 1022.6
20 06:53 NW 3 10.00 Fair CLR 51.1 46 83% 30.19 1022.4
20 05:53 N 3 10.00 Fair CLR 50 46 86% 30.19 1022.2
20 04:53 N 6 0.00 Fair CLR 52 45 77% 30.18 1022.0
20 03:53 Calm 0.00 Fair CLR 53.1 46 63 48.9 77% 30.18 1022.0
20 02:53 NW 5 0.00 Fair CLR 54 46.9 77% 30.19 1022.2
20 01:53 N 3 0.00 Fair CLR 52 48.9 89% 30.18 1022.2
20 00:53 NW 5 0.00 Fair CLR 52 50 93% 30.18 1022.1
19 23:53 N 3 0.00 Fair CLR 55 48 77% 30.18 1021.9
19 22:53 NE 3 0.00 Fair CLR 55.9 50 81% 30.17 1021.7
19 21:53 NE 6 10.00 Fair CLR 64 52 69.1 64 65% 30.16 1021.5
19 20:53 SW 7 10.00 Fair CLR 66.9 50 55% 30.16 1021.2
19 19:53 SW 8 10.00 Partly Cloudy SCT070 68 51.1 55% 30.15 1021.2
19 18:53 SW 9 10.00 Fair CLR 68 51.1 55% 30.15 1021.1
19 17:53 SW 12 G 18 10.00 Partly Cloudy SCT065 66.9 51.1 57% 30.16 1021.4
19 16:53 SW 12 G 20 10.00 Fair CLR 66.9 52 59% 30.17 1021.7
19 15:53 S 10 10.00 Fair CLR 66.9 51.1 66.9 57 57% 30.18 1022.0
19 14:53 S 7 10.00 Fair CLR 66.9 48.9 53% 30.19 1022.3
19 13:53 S 9 10.00 A Few Clouds FEW065 64.9 52 63% 30.19 1022.5
19 12:53 S 8 10.00 Fair CLR 63 52 68% 30.2 1022.8
19 11:53 SE 7 10.00 A Few Clouds FEW026 60.1 52 75% 30.2 1022.6
19 10:53 Vrbl 6 10.00 Fair CLR 57.9 51.1 78% 30.2 1022.8
19 09:53 E 5 10.00 Mostly Cloudy BKN085 57 50 57.9 48 78% 30.2 1022.7
19 08:53 NE 3 10.00 Partly Cloudy SCT090 54 48.9 83% 30.2 1022.8
19 07:53 Calm 10.00 Mostly Cloudy BKN075 52 46.9 83% 30.2 1022.7
19 06:53 Calm 10.00 Overcast OVC085 50 46.9 89% 30.2 1022.6
19 05:53 W 5 10.00 Overcast OVC080 48 46 93% 47 30.19 1022.3
19 04:53 Calm 0.00 Overcast OVC085 48.9 46.9 93% 30.18 1022.1
19 03:53 W 3 0.00 Overcast OVC080 48.9 46.9 54 48 93% 30.18 1022.1
19 02:53 Calm 0.00 Overcast OVC080 48.9 46.9 93% 30.18 1022.0
19 01:53 Calm 0.00 Overcast BKN070 OVC085 48.9 46.9 93% 30.18 1022.1
19 00:53 S 3 0.00 Fair CLR 48.9 46.9 93% 30.17 1021.7
18 23:53 S 3 0.00 Mostly Cloudy BKN110 50 48 93% 30.16 1021.5
18 22:53 S 6 0.00 Fair CLR 51.1 48 89% 30.15 1021.0
18 21:53 SE 8 10.00 A Few Clouds FEW050 54 48.9 64 54 83% 30.13 1020.3
18 20:53 S 8 0.00 Mostly Cloudy SCT060 BKN075 55.9 45 67% 30.11 1019.7
18 19:53 SE 8 0.00 Fair CLR 60.1 46.9 62% 30.09 1019.0
18 18:53 SW 7 10.00 Overcast BKN070 OVC080 60.1 46.9 62% 30.08 1018.6
Date Time (akdt) Wind (mph) Vis. (mi.) Weather Sky Cond. Air Dwpt Max. Min. Relative Humidity Wind Chill (°F) Heat Index (°F) altimeter (in) sea level (mb) 1 hr 3 hr 6 hr
6 hour
Temperature (ºF) Pressure Precipitation (in)